Regional Weather Roundup
Issued by NWS

Home | Current Version | Previous Version | Text Only | Print | Product List | Glossary On
Versions: 1 2 3 4 5 6 7 8 9 10 11 12 13 14 15 16 17 18 19 20 21 22 23 24 25 26 27 28 29 30 31 32 33 34 35 36 37 38 39 40 41 42 43 44 45 46 47 48 49 50
000
ASUS44 KLIX 041911
RWRLA
LOUISIANA WEATHER ROUNDUP
NATIONAL WEATHER SERVICE NEW ORLEANS LA
200 PM CDT SAT JUL 04 2015

NOTE: "FAIR" INDICATES FEW OR NO CLOUDS BELOW 12,000 FEET WITH NO
      SIGNIFICANT WEATHER AND/OR OBSTRUCTIONS TO VISIBILITY.
      SKY/WX - SKY CONDITION AND SIGNIFICANT WEATHER.
      TMP - AIR TEMPERATURE.    DP   - DEWPOINT TEMPERATURE.
      RH  - RELATIVE HUMIDITY.  PRES - PRESSURE.
      HX  - HEAT INDEX.         WCI  - WIND CHILL INDEX.

*  THESE STATIONS ARE NOT NWS OR FAA STATIONS AND ARE NOT UNDER
   NWS QUALITY CONTROL.

LAZ040-048-061>063-065-066-069-042000-
SOUTHEAST LOUISIANA

CITY           SKY/WX    TMP DP  RH WIND       PRES   REMARKS
N.O. AUDUBON   NOT AVBL
N.O. INTL ARPT CLOUDY    89  71  55 W14       30.04S HX  95
N.O. LAKEFRONT PTSUNNY   94  71  47 W12       30.04S HX 101
N.O. DOWNTOWN* FAIR      93  72  49 S10G16    30.05S HX 100
RESERVE*       FAIR      81  73  77 NW5       30.06F
SLIDELL        MOSUNNY   91  74  57 SW8G23    30.04R HX 100
BATON ROUGE    LGT RAIN  72  69  90 E5        30.05R
BOOTHVILLE     SUNNY     89  76  65 SW13      30.06F HX 100
BELLE CHASSE   PTSUNNY   90  69  50 W12       30.04S
BOGALUSA*        N/A     85  71  64 NW10G20   30.05S THUNDER
GALLIANO*      MOCLDY    91  74  58 MISG      30.06S HX 100
NEW ROADS*     FAIR     N/A N/A N/A S6        30.05S
GONZALES*      FAIR      75  75 100 CALM      30.06R
HAMMOND*       TSTM      72  68  88 N3G15     30.09R
HOUMA*         MOSUNNY   88  73  62 S8        30.05F HX  96
PORT FOURCHON* PTCLDY    88  75  66 SW10G16   30.06F HX  97

$$

LAZ041-044-053-054-042000-
SOUTHWEST LOUISIANA

CITY           SKY/WX    TMP DP  RH WIND       PRES   REMARKS
LAKE CHARLES   CLOUDY    87  74  64 S8        30.01F HX  95
LAFAYETTE      CLOUDY    79  75  87 CALM      30.04S
PATTERSON      CLOUDY    84  73  70 SW7       30.06F
SALT POINT       N/A     86  76  71 VRB5      30.03F HX  96
NEW IBERIA     NOT AVBL
CHENAULT AIRPK PTSUNNY   82  77  83 SW6       30.02F THUNDER

$$

LAZ027-028-042000-
CENTRAL LOUISIANA

CITY           SKY/WX    TMP DP  RH WIND       PRES   REMARKS
FORT POLK      PTSUNNY   79  73  83 SW9       29.99F
ALEXANDRIA INT LGT RAIN  86  73  65 W16G23    29.97F
ALEXANDRIA     MOSUNNY   93  72  50 NW8       29.98F HX 101

$$

LAZ001-002-042000-
NORTHWEST LOUISIANA

CITY           SKY/WX    TMP DP  RH WIND       PRES   REMARKS
SHREVEPORT     PTSUNNY   89  72  56 W13       29.95F HX  96
BARKSDALE AFB  MOSUNNY   79  72  79 E12       29.97F
DTN SHREVEPORT LGT RAIN  79  74  84 E8        29.97F

$$

LAZ014-016-042000-
NORTHEAST LOUISIANA

CITY           SKY/WX    TMP DP  RH WIND       PRES   REMARKS
MONROE         CLOUDY    80  70  71 N3        30.02F
TALLULAH       CLOUDY    78  69  73 CALM      30.01F

$$



USA.gov is the U.S. government's official web portal to all federal, state and local government web resources and services.